"Pseudo-MPEC" for P10LgOf

Created 2019 Jan 17 15:18:30 UT using Find_Orb

Click here for an explanation of pseudo-MPECs

 
 Astrometry: 
     P10LgOf  C2018 12 319SXd95fT9CaUx1C-^Y$KF__yvlODf[K4]jNs0\fAstrometrySCAF51
     P10LgOf  C2018 12 31rDU1CQXLOD.UJB8nJe%,QX)sd87_5?W3Ni0ZG\/EjpgWkBCxt[G@F51
     P10LgOf  C2018 12 31j:j3JJ4-3YwR)cH0redacted;_kb3GCZgqMd)%s;I`?stLa.$97BF51
     P10LgOf  C2019 01 09OR8c@c6^lkc@`3%`U,!c0:,J:mfEaowSXqIUc:s)T,cYFr?H[)66F51
     P10LgOf  C2019 01 09LR4xH7S1+Ln_22s3*8[@BQV2r`oclick%5m[;EJ9naGYmMN,:`%MF51
     P10LgOf  C2019 01 09@2ZukIhMehQX\8Yo_-wFG]%N(w6FkOgq;!F-K54jWemW\bqC`=DwF51
     P10LgOf  C2019 01 09e7G7SH]:ML(q)GtvX0_O-yFQvCIVq16\H]sU_1I3]Q*gxXcWB`O!F51
     P10LgOf KC2019 01 10!:D7=[eL@vv-here3'lJ7mtQvv8#Nv`6QU4CLobx5^twKiL\9DM`H21
     P10LgOf KC2019 01 10v!2S/FP[;8Z+P.(!dq'FdKM%D`bl1i2V!?foG=a[7j^mT/tUt\SxH21
     P10LgOf ^C2019 01 14.38800107 41 01.591+25 05 22.94   ~1EAI 21.87GVNEOCP568
     P10LgOf ^C2019 01 14.38894807 41 01.435+25 05 21.77   ~1EAI 21.78GVNEOCP568
     P10LgOf ^C2019 01 14.38993307 41 01.271+25 05 20.54   ~1EAI 21.81GVNEOCP568
     P10LgOf  C2019 01 17f'5for_m7Uo.pPe.tI!OYO^-O@`'cUrp+6-@vUW+J@!T+cO.$AnNV06
     P10LgOf  C2019 01 17Qp#\`1#\f4Aj.CD9,sHKQCsmrp*:O)8Soc:@PF.r6=;[0!.2`VS-V06
     P10LgOf  C2019 01 174ZN*whd=se%k!B`6-;y?v9uOFWy8T-3hgaL*k5#V:H17.D#!=y:mV06
     P10LgOf  C2019 01 175emVMst1d/ht$6`;xb9U=VUWI^Ktexplanationf$xVCEfJsa[7JV06

Station data:
(568) Mauna Kea  (N19.826116 W155.472200)  US/Hawaii.
(F51) Pan-STARRS 1, Haleakala  (N20.707235 W156.255910)  US/Hawaii.
   Observers N. Primak, A. Schultz, S. Watters, J. Thiel, T. Goggia. Measurer
   PS1 Science Consortium. 1.8-m Ritchey-Chrétien + CCD.
(H21) Astronomical Research Observatory, Westfield  (N39.483057 W87.968270)
   US/Illinois. 0.76-m f/3.0 astrograph + CCD.
(V06) Catalina Sky Survey-Kuiper  (N32.416847 W110.732550)  US/Arizona.
   Observers B. M. Africano, E. J. Christensen, G. A. Farneth, D. C. Fuls, A.
   R. Gibbs, A. D. Grauer, H. Groeller, J. A. Johnson, R. A. Kowalski, S. M.
   Larson, G. J. Leonard, R. L. Seaman, F. C. Shelly. 1.55-m reflector + CCD.

Orbital elements:  P10LgOf
   Perihelion 2019 Sep 11.449912 +/- 0.0602 TT = 10:47:52 (JD 2458737.949912)
Epoch 2019 Jan 17.0 TT = JDT 2458500.5   Earth MOID: 0.2303   Ma: 0.0247
M 222.73177480 +/- 0.27             (J2000 ecliptic)          AutoNEOCP
n   0.57809339 +/- 0.00107          Peri.  324.52696 +/- 0.15
a   1.42715358 +/- 0.00177          Node   296.79777 +/- 0.013
e   0.1433947 +/- 0.000961          Incl.   21.71282 +/- 0.12
P   1.70/622.72d           H 21.7   G  0.15   U  8.2  
q 1.22250726 +/- 0.000155    Q 1.63179990 +/- 0.00338
From 16 observations 2018 Dec. 31-2019 Jan. 17; mean residual 0".28
Residuals in arcseconds: 
181231 F51  .03-  .01+    190109 F51  .04+  .05-    190117 V06  .79+  .92+    
181231 F51  .26-  .14-    190110 H21  .20-  .09+    190117 V06  .33-  .14-    
181231 F51  .26+  .19+    190110 H21  .13+  .18-    190117 V06  .09-  .41-    
190109 F51  .11+  .12+    190114 568  .02+  .05+    190117 V06  .40-  .37-    
190109 F51  .01+  .15-    190114 568  .01+  .04+    
190109 F51  .03-  .02+    190114 568  .02-  .02+    

Ephemerides (geocentric):
Date (UTC) HH   RA              Dec         delta   r     elong  mag " sig PA
---- -- -- --  -------------   -----------  ------ ------ -----  --- ---- ---
2019 01 17 15  07 32 33.583   +23 56 59.24  .60687 1.5884 173.7 22.0 .147  72
2019 01 17 16  07 32 27.116   +23 56 05.27  .60686 1.5883 173.7 22.0 .158  72
2019 01 17 17  07 32 20.651   +23 55 11.27  .60685 1.5883 173.6 22.0 .168  73
2019 01 17 18  07 32 14.188   +23 54 17.25  .60684 1.5882 173.6 22.0 .179  73
2019 01 17 19  07 32 07.727   +23 53 23.20  .60683 1.5882 173.5 22.0 .190  73
2019 01 17 20  07 32 01.269   +23 52 29.12  .60682 1.5881 173.5 22.0 .201  73
2019 01 17 21  07 31 54.814   +23 51 35.02  .60681 1.5881 173.4 22.0 .212  73
2019 01 17 22  07 31 48.360   +23 50 40.90  .60680 1.5880 173.3 22.0 .223  73
2019 01 17 23  07 31 41.910   +23 49 46.75  .60679 1.5880 173.3 22.0 .234  73
2019 01 18 00  07 31 35.461   +23 48 52.57  .60678 1.5879 173.2 22.0 .246  73
2019 01 18 01  07 31 29.015   +23 47 58.37  .60678 1.5879 173.2 22.0 .258  73
2019 01 18 02  07 31 22.572   +23 47 04.14  .60677 1.5878 173.1 22.0 .269  73
2019 01 18 03  07 31 16.130   +23 46 09.88  .60676 1.5878 173.1 22.0 .281  73
2019 01 18 04  07 31 09.692   +23 45 15.61  .60676 1.5877 173.0 22.0 .294  73
2019 01 18 05  07 31 03.256   +23 44 21.31  .60675 1.5877 172.9 22.0 .306  73
2019 01 18 06  07 30 56.822   +23 43 26.98  .60675 1.5876 172.9 22.0 .318  73
2019 01 18 07  07 30 50.391   +23 42 32.63  .60674 1.5876 172.8 22.0 .331  73
2019 01 18 08  07 30 43.963   +23 41 38.25  .60674 1.5875 172.8 22.0 .344  73
2019 01 18 09  07 30 37.537   +23 40 43.85  .60674 1.5875 172.7 22.0 .357  73
2019 01 18 10  07 30 31.114   +23 39 49.43  .60673 1.5874 172.7 22.0 .370  73
2019 01 18 11  07 30 24.694   +23 38 54.98  .60673 1.5874 172.6 22.0 .383  73
2019 01 18 12  07 30 18.276   +23 38 00.51  .60673 1.5873 172.5 22.0 .396  73
2019 01 18 13  07 30 11.861   +23 37 06.01  .60673 1.5873 172.5 22.0 .410  73
2019 01 18 14  07 30 05.448   +23 36 11.49  .60673 1.5872 172.4 22.0 .423  73
2019 01 18 15  07 29 59.039   +23 35 16.95  .60673 1.5872 172.4 22.0 .437  73
2019 01 18 16  07 29 52.632   +23 34 22.39  .60673 1.5872 172.3 22.0 .451  73
2019 01 18 17  07 29 46.227   +23 33 27.80  .60673 1.5871 172.3 22.0 .465  73
2019 01 18 18  07 29 39.826   +23 32 33.19  .60673 1.5871 172.2 22.0 .480  73
2019 01 18 19  07 29 33.427   +23 31 38.55  .60673 1.5870 172.1 22.0 .494  73
2019 01 18 20  07 29 27.032   +23 30 43.89  .60673 1.5870 172.1 22.0 .509  73
2019 01 18 21  07 29 20.639   +23 29 49.22  .60673 1.5869 172.0 22.0 .524  73
2019 01 18 22  07 29 14.249   +23 28 54.51  .60674 1.5869 172.0 22.0 .539  73
2019 01 18 23  07 29 07.861   +23 27 59.79  .60674 1.5868 171.9 22.0 .554  73
2019 01 19 00  07 29 01.477   +23 27 05.04  .60674 1.5868 171.8 22.0 .569  73
2019 01 19 01  07 28 55.096   +23 26 10.27  .60675 1.5867 171.8 22.0 .585  73
2019 01 19 02  07 28 48.717   +23 25 15.48  .60675 1.5867 171.7 22.1 .600  73
2019 01 19 03  07 28 42.342   +23 24 20.67  .60676 1.5866 171.7 22.1 .616  73
2019 01 19 04  07 28 35.969   +23 23 25.83  .60676 1.5866 171.6 22.1 .632  73
2019 01 19 05  07 28 29.599   +23 22 30.98  .60677 1.5865 171.5 22.1 .648  73
2019 01 19 06  07 28 23.233   +23 21 36.10  .60677 1.5865 171.5 22.1 .664  73
2019 01 19 07  07 28 16.869   +23 20 41.20  .60678 1.5864 171.4 22.1 .681  73
2019 01 19 08  07 28 10.509   +23 19 46.28  .60679 1.5864 171.4 22.1 .697  73
2019 01 19 09  07 28 04.152   +23 18 51.34  .60680 1.5863 171.3 22.1 .714  73
2019 01 19 10  07 27 57.797   +23 17 56.38  .60680 1.5863 171.2 22.1 .731  73
2019 01 19 11  07 27 51.446   +23 17 01.40  .60681 1.5862 171.2 22.1 .748  73
2019 01 19 12  07 27 45.098   +23 16 06.40  .60682 1.5862 171.1 22.1 .766  73
2019 01 19 13  07 27 38.753   +23 15 11.37  .60683 1.5861 171.1 22.1 .783  73
2019 01 19 14  07 27 32.411   +23 14 16.33  .60684 1.5861 171.0 22.1 .801  73